Content
SEND FEEDBACK

Daily
Averages
Monthly
Summary
United States of America

ELSBERRY, MISSOURI


Home > North America > United States > Missouri
Elevation: 437 feet     Latitude: 39 09N     Longitude: 090 46W

WEATHER
 
SELECT A DAY
Number of Records: 170,354;   Date Range: 10/8/98 - 10/23/14
 
SHARE

PRINT THIS DATA

[ ← Previous Day ]
WEATHER ALMANAC - JANUARY 31, 2013
[ Next Day → ]
[ °C ]   °F
Weather ElementAverageHighLow
Temperature25.5 °F30.9 °F (12:54 pm)12 °F (10:54 pm)
Dewpoint14 °F19.9 °F (11:54 am)-0.9 °F (10:54 pm)
Humidity62 %75 % (3:54 am)47 % (2:54 pm)
Barometer30.07 in30.40 in (10:54 pm)29.95 in (1:54 am)
Wind Speed16.4 mph24.2 mph (3:54 pm)
Wind Gust39.1 mph (2:54 pm)
Weather ElementAverage
Visibility9.5 mi
Wind DirectionWNW (281.3 °)

Weather ElementTotal
Precipitation---
Heating Degree Days43.6 (Base 65)
Averaged from 23 records on January 31, 2013
WEATHER CONDITIONS BREAKOUT
WIND DIRECTION BREAKOUT
WEATHER BY HOUR - JANUARY 31, 2013
[ °C ]   °F
Local TimeTemperatureDewpointHumidityBarometerVisibilityWind DirectionWind SpeedGust SpeedPrecipitationEventsConditions
1:54 AM27.0 °F18.0 °F69 %29.95 in6.0 miWest (280°)16.1 mph0.00 inSnowLight Snow
2:54 AM27.0 °F18.0 °F69 %29.96 in10.0 miWNW (290°)12.7 mph0.00 inOvercast
3:54 AM26.1 °F19.0 °F75 %29.95 in6.0 miWest (260°)8.1 mph0.00 inSnowLight Snow
4:54 AM26.1 °F15.1 °F63 %29.95 in10.0 miWest (270°)12.7 mph0.00 inClear
5:54 AM27.0 °F16.0 °F63 %29.96 in10.0 miWest (270°)11.5 mphMostly Cloudy
6:54 AM27.0 °F16.0 °F63 %29.98 in10.0 miWest (260°)15.0 mphOvercast
7:54 AM27.0 °F16.0 °F63 %29.99 in10.0 miWSW (250°)9.2 mphOvercast
8:54 AM28.0 °F17.1 °F63 %30.02 in10.0 miWSW (250°)12.7 mphOvercast
9:54 AM28.0 °F18.0 °F66 %30.04 in10.0 miWest (270°)17.3 mph25.3 mphOvercast
10:43 AM30.2 °F19.4 °F64 %30.03 in10.0 miWest (260°)17.3 mphOvercast
10:54 AM30.0 °F19.0 °F64 %30.04 in10.0 miWest (270°)15.0 mph24.2 mphOvercast
11:18 AM30.2 °F19.4 °F64 %30.03 in10.0 miWest (270°)16.1 mph24.2 mphOvercast
11:30 AM30.2 °F19.4 °F64 %30.02 in10.0 miWNW (290°)17.3 mph23.0 mphOvercast
11:37 AM30.2 °F19.4 °F64 %30.02 in8.0 miWest (280°)13.8 mph21.9 mph0.00 inSnowLight Snow
11:54 AM30.0 °F19.9 °F66 %30.04 in10.0 miWest (280°)13.8 mph0.00 inOvercast
12:54 PM30.9 °F19.0 °F61 %30.02 in10.0 miWNW (300°)17.3 mph0.00 inOvercast
2:54 PM27.0 °F9.0 °F47 %30.06 in10.0 miWest (280°)20.7 mph39.1 mphOvercast
3:54 PM25.0 °F10.0 °F53 %30.12 in10.0 miNW (310°)24.2 mph32.2 mphOvercast
4:54 PM21.0 °F8.1 °F57 %30.18 in10.0 miNNW (330°)20.7 mph27.6 mphOvercast
7:54 PM18.0 °F5.0 °F57 %30.27 in10.0 miWNW (290°)19.6 mph29.9 mphOvercast
8:54 PM15.1 °F1.0 °F54 %30.32 in10.0 miNW (310°)23.0 mph31.1 mphPartly Cloudy
9:54 PM12.9 °F1.9 °F62 %30.36 in9.0 miWNW (290°)24.2 mph28.8 mph0.00 inOvercast
10:54 PM12.0 °F-0.9 °F56 %30.40 in10.0 miNW (310°)18.4 mph0.00 inClear
Hourly data recorded from KSET, located miles away from Elsberry, Missouri







STORIES FROM OUR PARTNERS